Lexington Weather

Lexington, Massachusetts, USA

36°F
1/28/2020 5:23am 
  • Lexington Conditions: Overcast
  • Temperature: 36.1°F / 2.3°C 
  • Dew Point: 30.0°FIncreased 0.3°Fsince last hour.
  • Relative Humidity: 78%Increased 1.0% since last hour.
  • Wind: Wind from NNW NNW 2 mph, 10-min avg: 2 mph, gust: 4 mph
  • Barometer: 29.64 inRising 0.02  inHg/hr Rising Slowly
  • Visibility: 10 miles
  • Rain Today: 0.00 in
  •   

Regional Weather Roundup
for Boston / Norton, MA

        
000
ASUS41 KBOX 260301
RWRBOX

REGIONAL WEATHER ROUNDUP
NATIONAL WEATHER SERVICE BOSTON/NORTON MA
1000 PM EST SAT JAN 25 2020

NOTE:  "FAIR" INDICATES FEW OR NO CLOUDS BELOW 12,000 FEET WITH NO 
SIGNIFICANT WEATHER AND/OR OBSTRUCTIONS TO VISIBILITY.

MAZALL-260400-
EASTERN MASSACHUSETTS
  
CITY           SKY/WX    TMP DP  RH WIND       PRES   REMARKS
BOSTON         LGT RAIN  48  44  86 SE17      29.74F FOG              
BEVERLY        RAIN      46  44  93 SE15G25   29.75F FOG              
LAWRENCE       LGT RAIN  47  44  90 E12G30    29.76F                  
BEDFORD        CLOUDY    46  43  89 E3        29.72F                  
BLUE HILL        N/A     47  47 100 SE18G25   29.70F                  
NORWOOD        LGT RAIN  54  49  83 SE14G21   29.71F                  
MARSHFIELD     NOT AVBL                                               
PLYMOUTH       HVY RAIN  51  50  96 SE12G25   29.75F FOG              
TAUNTON        RAIN      50  49  96 SE13      29.73F FOG              
NEW BEDFORD    LGT RAIN  50  50 100 SE16      29.73F FOG              
$$

MAZALL-260400-
CAPE COD AND THE ISLANDS
  
CITY           SKY/WX    TMP DP  RH WIND       PRES   REMARKS
FALMOUTH       DRIZZLE   48  48 100 SE23      29.75F                  
HYANNIS        NOT AVBL                                               
CHATHAM        LGT RAIN  48  48 100 SE13G24   29.77F FOG              
PROVINCETOWN   LGT RAIN  48  47  96 SE17      29.76F FOG              
NANTUCKET      LGT RAIN  49  47  93 SE21      29.77F FOG              
MARTHAS VNYRD  RAIN      49  48  97 SE18G29   29.73F FOG              
$$
 
MAZALL-260400-
CENTRAL AND WESTERN MASSACHUSETTS
  
CITY           SKY/WX    TMP DP  RH WIND       PRES   REMARKS
WORCESTER      LGT RAIN  40  39  97 N8        29.71F FOG              
FITCHBURG      LGT RAIN  40  38  93 N5        29.75F FOG              
ORANGE         LGT RAIN  40  37  89 CALM      29.73F                  
SPRINGFIELD    DRIZZLE   40  39  98 NE5       29.70F FOG              
WESTFIELD      CLOUDY    40  39  97 N7        29.71F FOG              
NORTH ADAMS    CLOUDY    40  36  86 E14       29.71F                  
PITTSFIELD     CLOUDY    38  36  92 CALM      29.69F FOG              
$$
 
RIZALL-260400-
RHODE ISLAND
  
CITY           SKY/WX    TMP DP  RH WIND       PRES   REMARKS
PROVIDENCE     LGT RAIN  50  50 100 S15G24    29.72S FOG              
NEWPORT        LGT RAIN  50  49  96 S17G26    29.73S FOG              
BLOCK ISLAND   MOCLDY    47  46  97 W16       29.74S FOG              
SMITHFIELD     LGT RAIN  51  50  96 S8G20     29.71F FOG              
WESTERLY       CLOUDY    50  46  86 SW10      29.73F                  
$$
 
CTZALL-260400-
CONNECTICUT
  
CITY           SKY/WX    TMP DP  RH WIND       PRES   REMARKS
BRADLEY INTL   DRIZZLE   42  40  92 VRB3      29.72S FOG              
HARTFORD       CLOUDY    42  41  96 CALM      29.73S FOG              
BRIDGEPORT     FOG       43  42  97 SW8       29.74R VSB 1            
DANBURY        CLOUDY    40  40 100 W6        29.74S FOG              
GROTON         NOT AVBL                                               
NEW HAVEN      CLOUDY    48  46  93 SW6       29.72S FOG              
CHESTER        NOT AVBL                                               
MERIDEN        CLOUDY    42  41  96 CALM      29.72F                  
WILLIMANTIC    FOG       45  45 100 CALM      29.71F VSB 3/4          
OXFORD         FOG       41  41 100 CALM      29.71F VSB 1/4          
$$

MEZ002-015-021-024-NHZ003-005-008-011-012-014-VTZ005-008-260400-
NORTHERN NEW ENGLAND
  
CITY           SKY/WX    TMP DP  RH WIND       PRES   REMARKS
PORTLAND ME    RAIN      40  37  89 E23G32    29.86F FOG     WCI  30  
BANGOR ME      CLOUDY    35  31  85 E12       30.05F WCI  27          
CONCORD NH     HVY RAIN  39  36  89 NE14G25   29.78F FOG     WCI  31  
MANCHESTER NH  LGT RAIN  42  40  92 NE12G23   29.75F FOG              
NASHUA NH      RAIN      42  42 100 CALM      29.76F FOG              
PORTSMOUTH NH  NOT AVBL                                               
JAFFREY NH     LGT RAIN  39  37  92 CALM      29.73F FOG              
KEENE NH       LGT RAIN  41  38  89 CALM      29.73F                  
BURLINGTON VT  LGT SNOW  33  31  92 NW8       29.76F VSB 3/4 WCI  26  
MT. WASHINGTON NOT AVBL                                               
$$

NYZ052-076-260400-
EASTERN NEW YORK
  
CITY           SKY/WX    TMP DP  RH WIND       PRES   REMARKS
ALBANY         LGT RAIN  39  35  86 NW7       29.76S FOG              
NEW YORK CITY  FAIR      44  39  82 W14       29.77R                  
$$
 
ANZALL-260400-
MARINE OBSERVATIONS
  
STATION/POSITION TIME  TEMP    WIND        PRES    VSBY  WAVE
                       AIR SEA DIR/SP/G                  HT/PER
                 (UTC) (F)     (DEG/KT/KT) (MB)    (MI)  (FT/S)
BOSTON BUOY      0150   45 43  110/ 25/ 31 1007.4          9/ 7
BUZZARDS BAY     0200   46     130/ 23/ 26 1007.3F
NANTUCKET SOUND  0220                        N/A
MASS BAY-STELLWA 0204   45 42  140/ 27/ 35 1006.1F  1 3/4 11/ 8
ISLE OF SHOALS   0200   44      90/ 39/ 46 1006.6F
S OF BLOCK IS    0230      44                N/A           8/10
$$

......................KEY.........................
  SKY/WX - SKY CONDITION/PRESENT WEATHER
  TMP    - TEMPERATURE IN FAHRENHEIT
  DWPT   - DEWPOINT IN FAHRENHEIT
  RH     - RELATIVE HUMIDITY IN PERCENT
  WIND   - DIRECTION AND SPEED IN MPH
  PRES   - MEAN SEA LEVEL PRESSURE IN INCHES OF HG
  WCI    - WIND CHILL INDEX
  VSB    - VISIBILITY IN MILES
  HX     - HEAT INDEX
  TC     - TEMPERATURE IN CELSIUS
  VRB    - VARIABLE WIND DIRECTION
  N/A    - NOT AVAILABLE
  
      

Other recent Regional Weather Roundups

Tue Jan 28, 5:10am

Tue Jan 28, 5:00am

Tue Jan 28, 4:10am

Tue Jan 28, 4:00am

Tue Jan 28, 3:10am

Tue Jan 28, 3:01am

Tue Jan 28, 2:10am

Tue Jan 28, 2:00am

Tue Jan 28, 1:10am

Tue Jan 28, 1:00am

Tue Jan 28, 12:10am

Tue Jan 28, 12:01am

Mon Jan 27, 11:10pm

Mon Jan 27, 11:00pm

Mon Jan 27, 10:10pm

Mon Jan 27, 10:00pm

Mon Jan 27, 9:10pm

Mon Jan 27, 9:00pm

Mon Jan 27, 8:10pm

Mon Jan 27, 8:01pm

Mon Jan 27, 7:10pm

Mon Jan 27, 7:00pm

Mon Jan 27, 6:10pm

Mon Jan 27, 6:00pm

Mon Jan 27, 5:10pm

Mon Jan 27, 5:00pm

Mon Jan 27, 4:10pm

Mon Jan 27, 4:00pm

Mon Jan 27, 3:10pm

Mon Jan 27, 3:00pm

Mon Jan 27, 2:10pm

Mon Jan 27, 2:00pm

Mon Jan 27, 1:10pm

Mon Jan 27, 1:00pm

Mon Jan 27, 12:10pm

Mon Jan 27, 12:00pm

Mon Jan 27, 11:10am

Mon Jan 27, 11:01am

Mon Jan 27, 10:10am

Mon Jan 27, 10:00am

Mon Jan 27, 9:10am

Mon Jan 27, 9:00am

Mon Jan 27, 8:10am

Mon Jan 27, 8:00am

Mon Jan 27, 7:10am

Mon Jan 27, 7:00am

Mon Jan 27, 6:10am

Mon Jan 27, 6:00am

Mon Jan 27, 5:10am

Mon Jan 27, 5:00am

Mon Jan 27, 4:10am

Mon Jan 27, 4:01am

Mon Jan 27, 3:10am

Mon Jan 27, 3:00am

Mon Jan 27, 2:10am

Mon Jan 27, 2:00am

Mon Jan 27, 1:10am

Mon Jan 27, 1:00am

Mon Jan 27, 12:10am

Mon Jan 27, 12:00am

Sun Jan 26, 11:10pm

Sun Jan 26, 11:00pm

Sun Jan 26, 10:10pm

Sun Jan 26, 10:00pm

Sun Jan 26, 9:10pm

Sun Jan 26, 9:01pm

Sun Jan 26, 8:10pm

Sun Jan 26, 8:00pm

Sun Jan 26, 7:10pm

Sun Jan 26, 7:00pm

Sun Jan 26, 6:10pm

Sun Jan 26, 6:01pm

Sun Jan 26, 5:10pm

Sun Jan 26, 5:01pm

Sun Jan 26, 4:10pm

Sun Jan 26, 4:00pm

Sun Jan 26, 3:10pm

Sun Jan 26, 3:01pm

Sun Jan 26, 2:10pm

Sun Jan 26, 2:01pm

Sun Jan 26, 1:10pm

Sun Jan 26, 1:00pm

Sun Jan 26, 12:10pm

Sun Jan 26, 12:00pm

Sun Jan 26, 11:10am

Sun Jan 26, 11:01am

Sun Jan 26, 10:10am

Sun Jan 26, 10:01am

Sun Jan 26, 9:10am

Sun Jan 26, 9:00am

Sun Jan 26, 8:10am

Sun Jan 26, 8:00am

Sun Jan 26, 7:10am

Sun Jan 26, 7:00am

Sun Jan 26, 6:10am

Sun Jan 26, 6:00am

Sun Jan 26, 5:10am

Sun Jan 26, 5:00am

Sun Jan 26, 4:10am

Sun Jan 26, 4:01am

Sun Jan 26, 3:10am

Sun Jan 26, 3:01am

Sun Jan 26, 2:10am

Sun Jan 26, 2:00am

Sun Jan 26, 1:10am

Sun Jan 26, 1:00am

Sun Jan 26, 12:10am

Sun Jan 26, 12:00am

Sat Jan 25, 11:10pm

Sat Jan 25, 11:00pm

Sat Jan 25, 10:10pm

Sat Jan 25, 9:10pm

Sat Jan 25, 9:01pm

Sat Jan 25, 8:10pm

Sat Jan 25, 8:01pm

Sat Jan 25, 7:10pm

Sat Jan 25, 7:01pm

Sat Jan 25, 6:10pm

Sat Jan 25, 6:01pm

Sat Jan 25, 5:10pm

Sat Jan 25, 5:01pm

Sat Jan 25, 4:10pm

Sat Jan 25, 4:00pm

Sat Jan 25, 3:10pm

Sat Jan 25, 3:01pm

Sat Jan 25, 2:10pm

Sat Jan 25, 2:00pm

Sat Jan 25, 1:10pm

Sat Jan 25, 1:00pm

Sat Jan 25, 12:10pm

Sat Jan 25, 12:00pm

Sat Jan 25, 11:10am

Sat Jan 25, 11:00am

Sat Jan 25, 10:10am

Sat Jan 25, 10:00am

Sat Jan 25, 9:10am

Sat Jan 25, 9:00am

Sat Jan 25, 8:10am

Sat Jan 25, 8:01am

Sat Jan 25, 7:10am

Sat Jan 25, 7:00am

Sat Jan 25, 6:10am

Sat Jan 25, 6:00am

Meta data:

ID: 323bfee8-d0eb-47c3-a5c3-d0b6f6ac0e51
Link: https://api.weather.gov/products/323bfee8-d0eb-47c3-a5c3-d0b6f6ac0e51